Location: NCO
(38.4212°N, 77.1417°W)
Time: 13:35:17
(UTC-04:00)

Envisat - Visible Passes

Search period start: 14 June 2025 00:00
Search period end: 24 June 2025 00:00
Orbit: 761 x 763 km, 98.3° (Epoch: 14 June)

Date Brightness Start Highest point End Pass type
(mag) Time Alt. Az. Time Alt. Az. Time Alt. Az.
14 Jun 4.9 03:01:10 10° NE 03:05:03 22° E 03:08:12 13° SE visible
14 Jun 3.7 04:39:23 10° N 04:44:05 39° WNW 04:48:20 12° SW visible
15 Jun 3.0 04:01:26 10° NNE 04:06:32 88° E 04:10:12 19° SSW visible
16 Jun 4.1 03:24:05 10° NNE 03:28:46 37° E 03:32:03 18° SSE visible
16 Jun 4.3 05:03:28 10° NNW 05:07:28 24° WNW 05:11:28 10° WSW visible
17 Jun 5.3 02:47:45 10° NE 02:50:49 16° E 02:53:51 10° SE visible
17 Jun 3.2 04:25:07 10° N 04:30:03 54° WNW 04:34:02 15° SW visible
18 Jun 3.3 03:47:22 10° NNE 03:52:25 65° ESE 03:55:53 20° S visible
19 Jun 4.6 03:10:18 10° NE 03:14:35 27° E 03:17:45 15° SE visible
19 Jun 3.9 04:49:02 10° N 04:53:29 32° WNW 04:57:53 10° SW visible
20 Jun 5.5 02:35:04 10° ENE 02:36:32 11° E 02:38:01 10° ESE visible
20 Jun 3.0 04:10:55 10° N 04:15:59 75° WNW 04:19:44 18° SSW visible
21 Jun 3.8 03:33:23 10° NNE 03:38:16 46° E 03:41:34 19° SSE visible
22 Jun 5.0 02:56:42 10° NE 03:00:22 20° E 03:03:25 12° SE visible
22 Jun 3.5 04:34:40 10° N 04:39:27 43° WNW 04:43:33 14° SW visible
23 Jun 3.0 03:56:47 10° NNE 04:01:53 81° ESE 04:05:24 20° S visible
